Погода в Клине

Погода в Клине : погода сейчас, прогноз погоды и архив. Всё, что Вы хотите узнать о погоде в Клине!

Хотите узнать прогноз погоды в Клине? Тогда Вам сюда: Погода в Клине

Поиск расширенной информации на нашем сайте:

Другие новости

Новости СМИ2

Главная страница сайта

Новости сайта

03.07.2017

Напоминаем, что на нашем специализированном сайте Метеоцентр.Азия вы можете получить высокодетализированные автоматические прогнозы погоды по пунктам России, СНГ и мира в авиационном формате (включающие направление и скорость ветра, видимость, явления погоды, количество и форму облачности, нижнюю и верхнюю границу облачности).


Погода в Клине - сегодня

Время (UTC), дата Ветер
(°,м/с) 
Видим.   Явления Облачность Т
(°С)
Тd
(°С)
f(%) Тe
(°С)
Pmin
(гПа)
dP
(гПа)
Po
(мм)
O2
(г/м3)
Тmin Tmax R s Состояние
почвы
03 15.08.17 тихо ()   10 км    ясно 
+12.6 +11.5 93 +16  1024.4  1.6  753  288  +12.2         
06 15.08.17 350 (С) 10 км    ясно 
+18.2 +12.1 68 +24  1025.1  1.1  754  283  +12.2        влажная 
09 15.08.17 040 (СВ) 10 км    3/3 1000 м 
[Cu hum]
+21.2 +10.4 50 +23  1025.8  0.9  755  280           
12 15.08.17 020 (С) 10 км    4/4 1000 м 
[Cu hum]
+22.1 +9.3 44 +22  1026.1  0.3  755  280           
15 15.08.17 020 (С) 10 км    3/3 1000 м 
[Cu hum]
+21.4 +9.3 46 +22  1026.3  0.1  755  281           
21 15.08.17 тихо ()   10 км    ясно 
+9.7 +8.6 93 +10  1028.8  0.8  756  293           
00 16.08.17 тихо ()   10 км    ясно 
+7.8 +6.9 94 +8  1029.3  0.3  757  295           
03 16.08.17 тихо ()   10 км    ясно 
+7.3 +6.5 95 +7  1029.8  0.5  757  296  +6.7         
06 16.08.17 060 (СВ) 10 км    ясно 
+17.6 +12.4 72 +23  1029.3  0.2  757  284  +6.7        влажная 
09 16.08.17 050 (СВ) 10 км    1/0 средняя 
[Ac cast]
+21.6 +8.9 44 +22  1028.8  -0.2  757  281           
12 16.08.17 080 (В) 10 км    3/0 верхняя 
[Ci fib]
+23.7 +9 39 +24  1027.3  -1.3  756  279           
15 16.08.17 110 (В) 10 км    4/0 средняя, верхняя 
[Ac cast|Ci fib]
+23.5 +9.7 42 +24  1026.2  -1  755  278           
18 16.08.17 тихо ()   10 км    ясно 
+14.4 +12.3 87 +19  1026.9  0.1  755  287    +24.2       
21 16.08.17 тихо ()   10 км    ясно 
+11.7 +10.4 92 +13  1027.3  0.2  755  290           
00 17.08.17 тихо ()   10 км    8/8 600 м 
[Sc]
+12.7 +11.4 92 +16  1027.1  0.1  755  289           
03 17.08.17 180 (Ю) 10 км    8/8 600 м средняя 
[Sc|Ac trans]
+14.3 +12.5 89 +20  1027.1  0.1  755  287  +10.8         
06 17.08.17 160 (Ю) 10 км    9/3 600 м средняя 
[Sc|Ac cast]
+19.5 +13.9 70 +28  1026.8  755  281  +10.8        влажная 
09 17.08.17 170 (Ю) 10 км    8/6 600 м средняя 
[Sc diur, vesp|Ac cuf]
+24.3 +12.7 48 +29  1026.2  -0.2  755  277           
12 17.08.17 130 (ЮВ) 10 км    4/3 600 м средняя 
[Sc diur, vesp|Ac cuf]
+25.2 +9.6 37 +26  1025.2  -1  755  277           
15 17.08.17 200 (Ю) 10 км    3/3 600 м 
[Sc diur, vesp]
+25.2 +11 41 +28  1024.3  -0.9  754  276           
18 17.08.17 тихо ()   10 км    3/0 верхняя 
[Cc]
+16.4 +13.7 84 +23  1024.8  -0.2  754  284    +25.8       
21 17.08.17 тихо ()   10 км    ясно 
+16.7 +13.3 80 +22  1024.9  0.3  754  284           
00 18.08.17 150 (ЮВ) 10 км    4/0 верхняя 
[Cs]
+16.4 +12.7 79 +23  1024.4  -0.5  754  284           
03 18.08.17 170 (Ю) 10 км    8/1 600 м верхняя 
[Sc diur, vesp|Cc]
+16.6 +12.9 79 +23  1024.2  -0.2  753  284  +15.7         
06 18.08.17 170 (Ю) 10 км    6/0 средняя, верхняя 
[Ac trans|Cs]
+20.2 +15 72 +29  1023.8  -0.2  753  279  +15.7        сухая 
Время (UTC), дата Ветер
(°,м/с) 
Видим.   Явления Облачность Т
(°С)
Тd
(°С)
f(%) Тe
(°С)
Pmin
(гПа)
dP
(гПа)
Po
(мм)
O2
(г/м3)
Тmin Tmax R s Состояние
почвы

Для получения пояснительной информации подведите курсор к названию столбца.

ПОГОДА в Клине - архив

Всё, что Вы хотите узнать о погоде в Клине - удобно и подробно!

Выберите нужную дату (начиная с 1 января 2015* года) и нажмите кнопку "Найти".
Будут отображены архивные сводки погоды по пункту Клин, начиная с указанной даты.


Отображать данные в формате CSV (для использования в таблицах Excel)


Внимание! Наш архив погоды предназначен исключительно для личного некоммерческого использования в познавательных целях. Если Вам необходимы официальные справки о состоянии погоды (для производственных, юридических, коммерческих и т.п. целей), обращайтесь в органы Росгидромета.

*Примечание: данная дата относится к архиву по метеостанциям СССР (Россия, СНГ, Балтия).
Архив по метеостанциям Зарубежной Европы и Азии (кроме Китая) хранится 10 дней, по другим регионам земного шара (Китай, Африка, Америка, Австралия, Океания) - 1 день.

Клин - район местоположения метеостанции


Название, широта, долгота, высота метеостанции:
Клин 56.3°ш. 36.8°д. 167 м над ур. моря [Российская Федерация]

Дополнительная информация

В oтличие oт бoльшинства пoгoдных сайтoв мы публикуем пoдрoбную метеoинфoрмацию в детальнoм прoфессиoнальнoм фoрмате.

Характеристики температуры и влажнoсти вoздуха измеряются на высoте 2 м в тени вдали oт зданий и деревьев.
Скoрoсть ветра измеряется на высoте 10 м (на урoвне рoста челoвека скoрoсть ветра ниже в 1.5-2 раза). Если метеoстанция нахoдится в гoрoде или в лесу, тo скoрoсть ветра занижена на 2-4 м/с пo сравнению с oткрытым местoм. Скoрoсть ветра над акватoриями крупных рек и oзёр, а также на вершинах хoлмoв на 2-5 м/с выше, чем в oбычных услoвиях.
Атмoсфернoе давление в разных тoчках местнoсти мoжет значительнo oтличаться oт давления на метеoстанции, в зависимoсти oт услoвий рельефа (при пoдъёме на 10 м давление пoнижается примернo на 1 мм рт.ст.).